Little Chicago, Northwest Territories

7:12 AM MDT on June 27, 2017 (GMT -0600)
Little Chicago

Weather History for CWLG - January, 2014

Change the Weather History Date:

Wednesday, January 1, 2014

  Actual Average Record
Temperature  
Mean Temperature -28 °F -  
Max Temperature -9 °F - - ()
Min Temperature -46 °F - - ()
Degree Days  
Heating Degree Days 93    
Moisture  
Dew Point -42 °F    
Average Humidity 64    
Maximum Humidity 79    
Minimum Humidity 38    
Precipitation  
Precipitation 0.00 in - - ()
Sea Level Pressure  
Sea Level Pressure 30.22 in    
Wind  
Wind Speed 2 mph ()    
Max Wind Speed 7 mph    
Max Gust Speed -    
T = Trace of Precipitation, MM = Missing Value Source: Averaged Metar Reports

Daily Weather History Graph

Daily Weather History Graph

Search for Another Location

Airport or City:

Trip Planner

Search our weather history database for the weather conditions in past years. The results will help you decide how hot, cold, wet, or windy it might be!

Date:

Astronomy

Jan. 01, 2014 Rise Set
Actual Time 12:45 PM MST 2:44 PM MST
Civil Twilight 10:47 AM MST 4:42 PM MST
Nautical Twilight 9:25 AM MST 6:04 PM MST
Astronomical Twilight 8:17 AM MST 7:12 PM MST
Moon 11:23 AM MST (1/1) 5:00 PM MST (1/1)
Length of Visible Light 5h 55m
Length of Day
1h 58m
New Moon, 0% of the Moon is Illuminated
Jan 1
New Moon
Jan 7
First Quarter
Jan 15
Full
Jan 23
Last Quarter
Jan 30
New

Hourly Weather History & Observations

Time (MST) Temp. Windchill Dew Point Humidity Pressure Visibility Wind Dir Wind Speed Gust Speed Precip Events Conditions
12:00 AM -46.3 °F - -55.3 °F 60% 30.55 in - ENE 1.2 mph - N/A   Unknown
1:00 AM -44.9 °F - -53.7 °F 60% 30.55 in - East 1.2 mph - N/A   Unknown
2:00 AM -45.9 °F - -54.9 °F 60% 30.54 in - ESE 2.3 mph - N/A   Unknown
3:00 AM -46.1 °F - -55.3 °F 59% 30.53 in - Calm Calm - N/A   Unknown
4:00 AM -46.7 °F - -55.7 °F 59% 30.51 in - Calm Calm - N/A   Unknown
5:00 AM -46 °F - -55 °F 38% 30.48 in - Calm Calm - -  
5:00 AM -45.9 °F - -54.9 °F 60% 30.48 in - Calm Calm - N/A   Unknown
6:00 AM -45.8 °F - -54.8 °F 60% 30.45 in - ENE 1.2 mph - N/A   Unknown
7:00 AM -46.5 °F - -55.5 °F 60% 30.42 in - Calm Calm - N/A   Unknown
8:00 AM -45.4 °F -59.7 °F -54.2 °F 60% 30.39 in - ENE 3.5 mph - N/A   Unknown
9:00 AM -45.4 °F -59.7 °F -54.4 °F 60% 30.34 in - NNW 3.5 mph - N/A   Unknown
10:00 AM -45.0 °F - -54.0 °F 60% 30.31 in - ENE 2.3 mph - N/A   Unknown
11:00 AM -44 °F - -53 °F 39% 30.25 in - Calm Calm - -  
11:00 AM -44.0 °F - -52.8 °F 61% 30.25 in - Calm Calm - N/A   Unknown
12:00 PM -40.7 °F - -49.2 °F 62% 30.22 in - NNE 1.2 mph - N/A   Unknown
1:00 PM -39.5 °F - -47.7 °F 63% 30.19 in - Calm Calm - N/A   Unknown
2:00 PM -33.5 °F -51.3 °F -41.1 °F 66% 30.16 in - NNE 5.8 mph - N/A   Unknown
3:00 PM -32.4 °F -47.8 °F -39.8 °F 67% 30.09 in - NNW 4.6 mph - N/A   Unknown
4:00 PM -22.7 °F -36.4 °F -29.2 °F 72% 30.05 in - NNW 4.6 mph - N/A   Unknown
5:00 PM -21 °F - -27 °F 60% 30.02 in - NNW 5.8 mph - -  
5:00 PM -20.7 °F -36.2 °F -26.9 °F 73% 30.02 in - NNW 5.8 mph - N/A   Unknown
6:00 PM -19.3 °F -36.2 °F -25.2 °F 74% 29.96 in - NNW 6.9 mph - N/A   Unknown
7:00 PM -17.0 °F -29.7 °F -22.5 °F 76% 29.93 in - NNW 4.6 mph - N/A   Unknown
8:00 PM -16.4 °F -29.1 °F -21.8 °F 76% 29.91 in - NNW 4.6 mph - N/A   Unknown
9:00 PM -15.7 °F - -21.3 °F 76% 29.91 in - Calm Calm - N/A   Unknown
10:00 PM -15.2 °F - -20.4 °F 77% 29.89 in - Calm Calm - N/A   Unknown
11:00 PM -10 °F - -15 °F 69% 29.88 in - East 4.6 mph - -  
11:00 PM -9.9 °F -19.2 °F -14.8 °F 79% 29.88 in - East 3.5 mph - N/A   Unknown